OK,32,62,1026,32,2014-10-01T01:40:00,0,28072796,197598
OK,32,62,1026,32,2014-10-01T01:45:00,0,28073243,197598
OK,34,58,1026,34,2014-10-01T01:50:00,2,28073691,197598
OK,27,74,1026,27,2014-10-01T01:55:00,1,28074009,197598
OK,27,74,1026,27,2014-10-01T02:05:00,0,28074898,197598
OK,27,74,1026,27,2014-10-01T02:10:00,0,28075347,197598
OK,27,74,1026,27,2014-10-01T02:15:00,0,28075796,197598
OK,27,74,1026,27,2014-10-01T02:20:00,0,28076179,197598
OK,28,71,1026,28,2014-10-01T02:25:00,3,28076628,197598
OK,22,90,1026,22,2014-10-01T02:30:00,2,28077077,197598
OK,22,90,1026,22,2014-10-01T02:35:00,0,28077526,197598
OK,35,57,1026,35,2014-10-01T02:40:00,2,28077929,197598
OK,36,55,1026,36,2014-10-01T02:45:00,1,28078378,197598
OK,33,60,1026,33,2014-10-01T02:50:00,2,28078823,197598
OK,33,60,1026,33,2014-10-01T03:00:00,0,28079714,197598
OK,33,60,1026,33,2014-10-01T03:05:00,0,28080163,197598
OK,33,60,1026,33,2014-10-01T03:10:00,0,28080497,197598
OK,33,60,1026,33,2014-10-01T03:15:00,0,28080946,197598
OK,33,60,1026,33,2014-10-01T03:20:00,0,28081395,197598
OK,33,60,1026,33,2014-10-01T03:25:00,0,28081842,197598
OK,33,60,1026,33,2014-10-01T03:30:00,0,28082291,197598
OK,33,60,1026,33,2014-10-01T03:35:00,0,28082724,197598
OK,26,76,1026,26,2014-10-01T03:40:00,1,28083156,197598
OK,69,28,1026,69,2014-10-01T03:45:00,4,28083605,197598
OK,59,33,1026,59,2014-10-01T03:50:00,4,28084054,197598
OK,57,35,1026,57,2014-10-01T03:55:00,1,28084495,197598
OK,57,35,1026,57,2014-10-01T04:00:00,0,28084920,197598
OK,57,35,1026,57,2014-10-01T04:05:00,0,28085369,197598
OK,38,52,1026,38,2014-10-01T04:10:00,1,28085814,197598
OK,33,60,1026,33,2014-10-01T04:15:00,2,28086263,197598
OK,28,71,1026,28,2014-10-01T04:20:00,2,28086705,197598
OK,24,83,1026,24,2014-10-01T04:25:00,1,28087154,197598
OK,24,83,1026,24,2014-10-01T04:30:00,1,28087599,197598
OK,56,35,1026,56,2014-10-01T04:35:00,2,28088048,197598
OK,51,39,1026,51,2014-10-01T04:40:00,5,28088472,197598
OK,57,35,1026,57,2014-10-01T04:45:00,6,28088921,197598
OK,72,27,1026,72,2014-10-01T04:50:00,11,28089351,197598
OK,73,27,1026,73,2014-10-01T04:55:00,8,28089800,197598
OK,51,39,1026,51,2014-10-01T05:00:00,6,28090249,197598
OK,50,39,1026,50,2014-10-01T05:05:00,10,28090593,197598
OK,57,35,1026,57,2014-10-01T05:10:00,11,28091042,197598
OK,58,34,1026,58,2014-10-01T05:15:00,7,28091491,197598
OK,89,22,1026,89,2014-10-01T05:20:00,5,28091908,197598
OK,96,20,1026,96,2014-10-01T05:25:00,5,28092357,197598
OK,69,28,1026,69,2014-10-01T05:30:00,5,28092801,197598
OK,86,23,1026,86,2014-10-01T05:35:00,6,28093242,197598
OK,93,21,1026,93,2014-10-01T05:40:00,8,28093673,197598
OK,94,21,1026,94,2014-10-01T05:45:00,7,28094122,197598
OK,52,38,1026,52,2014-10-01T05:50:00,12,28094533,197598
OK,70,28,1026,70,2014-10-01T05:55:00,19,28094978,197598
OK,113,17,1026,113,2014-10-01T06:00:00,11,28095425,197598
OK,160,12,1026,160,2014-10-01T06:05:00,5,28095874,197598
OK,267,7,1026,267,2014-10-01T06:10:00,11,28096287,197598
OK,183,10,1026,183,2014-10-01T06:15:00,15,28096736,197598
OK,60,33,1026,60,2014-10-01T06:20:00,11,28097170,197598
OK,79,25,1026,79,2014-10-01T06:25:00,20,28097619,197598
OK,89,22,1026,89,2014-10-01T06:30:00,18,28098068,197598
OK,48,41,1026,48,2014-10-01T06:35:00,9,28098505,197598
OK,74,27,1026,74,2014-10-01T06:40:00,9,28098949,197598
OK,50,39,1026,50,2014-10-01T06:45:00,14,28099397,197598
OK,50,39,1026,50,2014-10-01T06:50:00,11,28099740,197598
OK,73,27,1026,73,2014-10-01T06:55:00,6,28100189,197598
OK,73,27,1026,73,2014-10-01T07:00:00,12,28100496,197598
OK,92,21,1026,92,2014-10-01T07:10:00,8,28101316,197598
OK,91,21,1026,91,2014-10-01T07:15:00,4,28101765,197598
OK,66,30,1026,66,2014-10-01T07:20:00,3,28102201,197598
OK,68,29,1026,68,2014-10-01T07:25:00,2,28102650,197598
OK,64,31,1026,64,2014-10-01T07:30:00,7,28103078,197598
OK,64,31,1026,64,2014-10-01T07:35:00,9,28103524,197598
OK,65,30,1026,65,2014-10-01T07:40:00,6,28103969,197598
OK,74,27,1026,74,2014-10-01T07:45:00,9,28104414,197598
OK,81,24,1026,81,2014-10-01T07:50:00,14,28104855,197598
OK,79,25,1026,79,2014-10-01T07:55:00,14,28105300,197598
OK,77,25,1026,77,2014-10-01T08:00:00,16,28105740,197598
OK,65,30,1026,65,2014-10-01T08:05:00,17,28106189,197598
OK,63,31,1026,63,2014-10-01T08:10:00,10,28106626,197598
OK,64,31,1026,64,2014-10-01T08:15:00,7,28107032,197598
OK,60,33,1026,60,2014-10-01T08:20:00,16,28107464,197598
OK,56,35,1026,56,2014-10-01T08:25:00,17,28107913,197598
OK,94,21,1026,94,2014-10-01T08:30:00,8,28108352,197598
OK,80,24,1026,80,2014-10-01T08:35:00,13,28108801,197598
OK,77,25,1026,77,2014-10-01T08:40:00,19,28109229,197598
OK,72,27,1026,72,2014-10-01T08:45:00,17,28109678,197598
OK,70,28,1026,70,2014-10-01T08:50:00,6,28110021,197598
OK,56,35,1026,56,2014-10-01T09:00:00,14,28110893,197598
OK,68,29,1026,68,2014-10-01T09:05:00,6,28111342,197598
OK,53,37,1026,53,2014-10-01T09:10:00,13,28111771,197598
OK,53,37,1026,53,2014-10-01T09:15:00,17,28112220,197598
OK,47,42,1026,47,2014-10-01T09:20:00,12,28112561,197598
OK,43,46,1026,43,2014-10-01T09:30:00,18,28113434,197598
OK,44,45,1026,44,2014-10-01T09:35:00,13,28113883,197598
OK,71,28,1026,71,2014-10-01T09:40:00,11,28114315,197598
OK,71,28,1026,71,2014-10-01T09:45:00,5,28114764,197598
OK,54,37,1026,54,2014-10-01T09:50:00,14,28115118,197598
OK,30,66,1026,30,2014-10-01T10:00:00,8,28115979,197598
OK,36,55,1026,36,2014-10-01T10:05:00,7,28116428,197598
OK,51,39,1026,51,2014-10-01T10:10:00,7,28116836,197598
OK,58,34,1026,58,2014-10-01T10:15:00,5,28117285,197598
OK,37,54,1026,37,2014-10-01T10:20:00,9,28117710,197598
OK,50,39,1026,50,2014-10-01T10:25:00,14,28118159,197598
OK,45,44,1026,45,2014-10-01T10:30:00,14,28118604,197598
OK,44,45,1026,44,2014-10-01T10:35:00,10,28119051,197598
OK,55,36,1026,55,2014-10-01T10:40:00,10,28119495,197598
OK,39,51,1026,39,2014-10-01T10:45:00,17,28119943,197598
OK,39,51,1026,39,2014-10-01T10:50:00,14,28120391,197598
OK,54,37,1026,54,2014-10-01T10:55:00,11,28120840,197598
OK,63,31,1026,63,2014-10-01T11:00:00,12,28121223,197598
OK,60,33,1026,60,2014-10-01T11:05:00,8,28121672,197598
OK,59,33,1026,59,2014-10-01T11:10:00,12,28122110,197598
OK,53,37,1026,53,2014-10-01T11:15:00,12,28122559,197598
OK,52,38,1026,52,2014-10-01T11:20:00,10,28123000,197598
OK,70,28,1026,70,2014-10-01T11:25:00,13,28123449,197598
OK,65,30,1026,65,2014-10-01T11:30:00,17,28123881,197598
OK,59,33,1026,59,2014-10-01T11:35:00,12,28124330,197598
OK,49,40,1026,49,2014-10-01T11:40:00,11,28124732,197598
OK,48,41,1026,48,2014-10-01T11:45:00,11,28125181,197598
OK,47,42,1026,47,2014-10-01T11:50:00,10,28125610,197598
OK,46,43,1026,46,2014-10-01T11:55:00,12,28126059,197598
OK,54,37,1026,54,2014-10-01T12:00:00,13,28126411,197598
OK,60,33,1026,60,2014-10-01T12:10:00,12,28127309,197598
OK,65,30,1026,65,2014-10-01T12:15:00,14,28127758,197598
OK,54,37,1026,54,2014-10-01T12:20:00,9,28128186,197598
OK,38,52,1026,38,2014-10-01T12:25:00,11,28128635,197598
OK,50,39,1026,50,2014-10-01T12:30:00,12,28129070,197598
OK,70,28,1026,70,2014-10-01T12:35:00,8,28129519,197598
OK,60,33,1026,60,2014-10-01T12:40:00,6,28129953,197598
OK,68,29,1026,68,2014-10-01T12:45:00,13,28130402,197598
OK,65,30,1026,65,2014-10-01T12:50:00,18,28130830,197598
OK,41,48,1026,41,2014-10-01T12:55:00,8,28131279,197598
OK,48,41,1026,48,2014-10-01T13:00:00,9,28131716,197598
OK,58,34,1026,58,2014-10-01T13:05:00,10,28132165,197598
OK,69,28,1026,69,2014-10-01T13:10:00,16,28132603,197598
OK,66,30,1026,66,2014-10-01T13:15:00,19,28133050,197598
OK,53,37,1026,53,2014-10-01T13:20:00,15,28133488,197598
OK,52,38,1026,52,2014-10-01T13:25:00,13,28133937,197598
OK,52,38,1026,52,2014-10-01T13:30:00,12,28134376,197598
OK,39,51,1026,39,2014-10-01T13:35:00,12,28134825,197598
OK,58,34,1026,58,2014-10-01T13:40:00,15,28135244,197598
OK,58,34,1026,58,2014-10-01T13:45:00,21,28135693,197598
OK,72,27,1026,72,2014-10-01T13:50:00,15,28136130,197598
OK,77,25,1026,77,2014-10-01T13:55:00,16,28136579,197598
OK,77,25,1026,77,2014-10-01T14:00:00,22,28137019,197598
OK,78,25,1026,78,2014-10-01T14:05:00,19,28137468,197598
OK,49,40,1026,49,2014-10-01T14:10:00,25,28137902,197598
OK,59,33,1026,59,2014-10-01T14:15:00,31,28138351,197598
OK,72,27,1026,72,2014-10-01T14:20:00,25,28138779,197598
OK,75,26,1026,75,2014-10-01T14:25:00,17,28139228,197598
OK,65,30,1026,65,2014-10-01T14:30:00,21,28139639,197598
OK,69,28,1026,69,2014-10-01T14:35:00,21,28140088,197598
OK,75,26,1026,75,2014-10-01T14:40:00,15,28140530,197598
OK,68,29,1026,68,2014-10-01T14:45:00,11,28140979,197598
OK,74,27,1026,74,2014-10-01T14:50:00,11,28141405,197598
OK,73,27,1026,73,2014-10-01T14:55:00,14,28141854,197598
OK,71,28,1026,71,2014-10-01T15:00:00,9,28142282,197598
OK,72,27,1026,72,2014-10-01T15:05:00,6,28142731,197598
OK,74,27,1026,74,2014-10-01T15:10:00,12,28143158,197598
OK,74,27,1026,74,2014-10-01T15:15:00,15,28143607,197598
OK,60,33,1026,60,2014-10-01T15:20:00,14,28144055,197598
OK,40,49,1026,40,2014-10-01T15:25:00,14,28144504,197598
OK,39,51,1026,39,2014-10-01T15:30:00,11,28144925,197598
OK,41,48,1026,41,2014-10-01T15:35:00,8,28145339,197598
OK,39,51,1026,39,2014-10-01T15:40:00,9,28145788,197598
OK,44,45,1026,44,2014-10-01T15:45:00,11,28146237,197598
OK,48,41,1026,48,2014-10-01T15:50:00,11,28146686,197598
OK,52,38,1026,52,2014-10-01T15:55:00,13,28147094,197598
OK,45,44,1026,45,2014-10-01T16:00:00,4,28147538,197598
OK,52,38,1026,52,2014-10-01T16:05:00,5,28147987,197598
OK,48,41,1026,48,2014-10-01T16:10:00,4,28148388,197598
OK,48,41,1026,48,2014-10-01T16:20:00,5,28149276,197598
OK,43,46,1026,43,2014-10-01T16:25:00,9,28149725,197598
OK,44,45,1026,44,2014-10-01T16:30:00,9,28150151,197598
OK,63,31,1026,63,2014-10-01T16:35:00,7,28150600,197598
OK,49,40,1026,49,2014-10-01T16:40:00,5,28151018,197598
OK,60,33,1026,60,2014-10-01T16:45:00,6,28151467,197598
OK,61,32,1026,61,2014-10-01T16:50:00,5,28151916,197598
OK,75,26,1026,75,2014-10-01T17:00:00,1,28152365,197598
OK,36,55,1026,36,2014-10-01T17:05:00,7,28152811,197598
OK,56,35,1026,56,2014-10-01T17:10:00,15,28153258,197598
OK,58,34,1026,58,2014-10-01T17:15:00,10,28153707,197598
OK,48,41,1026,48,2014-10-01T17:20:00,3,28154117,197598
OK,38,52,1026,38,2014-10-01T17:25:00,5,28154566,197598
OK,45,44,1026,45,2014-10-01T17:30:00,6,28155008,197598
OK,39,51,1026,39,2014-10-01T17:35:00,8,28155456,197598
OK,33,60,1026,33,2014-10-01T17:40:00,10,28155874,197598
OK,42,47,1026,42,2014-10-01T17:45:00,6,28156323,197598
OK,34,58,1026,34,2014-10-01T17:50:00,5,28156771,197598
OK,48,41,1026,48,2014-10-01T17:55:00,3,28157210,197598
OK,48,41,1026,48,2014-10-01T18:00:00,1,28157640,197598
OK,31,64,1026,31,2014-10-01T18:05:00,4,28158088,197598
OK,32,62,1026,32,2014-10-01T18:10:00,8,28158532,197598
OK,34,58,1026,34,2014-10-01T18:15:00,5,28158978,197598
OK,24,83,1026,24,2014-10-01T18:20:00,3,28159424,197598
OK,21,95,1026,21,2014-10-01T18:25:00,2,28159759,197598
OK,37,54,1026,37,2014-10-01T18:30:00,2,28160208,197598
OK,32,62,1026,32,2014-10-01T18:35:00,1,28160657,197598
OK,28,71,1026,28,2014-10-01T18:40:00,2,28161095,197598
OK,25,79,1026,25,2014-10-01T18:45:00,1,28161544,197598
OK,24,83,1026,24,2014-10-01T18:50:00,1,28161961,197598
OK,39,51,1026,39,2014-10-01T18:55:00,2,28162410,197598
OK,26,76,1026,26,2014-10-01T19:00:00,2,28162804,197598
OK,35,57,1026,35,2014-10-01T19:05:00,4,28163243,197598
OK,38,52,1026,38,2014-10-01T19:10:00,4,28163691,197598
OK,30,66,1026,30,2014-10-01T19:15:00,4,28164140,197598
OK,29,68,1026,29,2014-10-01T19:20:00,6,28164571,197598
OK,28,71,1026,28,2014-10-01T19:25:00,7,28165020,197598
OK,43,46,1026,43,2014-10-01T19:30:00,6,28165445,197598
OK,42,47,1026,42,2014-10-01T19:35:00,5,28165893,197598
OK,53,37,1026,53,2014-10-01T19:40:00,2,28166334,197598
OK,49,40,1026,49,2014-10-01T19:45:00,2,28166696,197598
OK,32,62,1026,32,2014-10-01T19:50:00,1,28167145,197598
OK,32,62,1026,32,2014-10-01T19:55:00,0,28167574,197598
OK,73,27,1026,73,2014-10-01T20:00:00,1,28168007,197598
OK,51,39,1026,51,2014-10-01T20:05:00,2,28168456,197598
OK,29,68,1026,29,2014-10-01T20:10:00,1,28168901,197598
OK,29,68,1026,29,2014-10-01T20:15:00,0,28169350,197598
OK,35,57,1026,35,2014-10-01T20:20:00,2,28169798,197598
OK,37,54,1026,37,2014-10-01T20:25:00,1,28170224,197598
OK,37,54,1026,37,2014-10-01T20:30:00,0,28170669,197598
OK,36,55,1026,36,2014-10-01T20:35:00,2,28171117,197598
OK,33,60,1026,33,2014-10-01T20:40:00,3,28171554,197598
OK,28,71,1026,28,2014-10-01T20:45:00,0,28172000,197598
OK,45,44,1026,45,2014-10-01T20:50:00,2,28172448,197598
OK,41,48,1026,41,2014-10-01T20:55:00,2,28172894,197598
OK,38,52,1026,38,2014-10-01T21:00:00,1,28173340,197598
OK,38,52,1026,38,2014-10-01T21:05:00,0,28173789,197598
OK,35,57,1026,35,2014-10-01T21:10:00,1,28174230,197598
OK,43,46,1026,43,2014-10-01T21:15:00,2,28174679,197598
OK,28,71,1026,28,2014-10-01T21:20:00,2,28175105,197598
OK,28,71,1026,28,2014-10-01T21:25:00,2,28175501,197598
OK,35,57,1026,35,2014-10-01T21:30:00,2,28175950,197598
OK,35,57,1026,35,2014-10-01T21:35:00,2,28176399,197598
OK,20,99,1026,20,2014-10-01T21:40:00,1,28176848,197598
OK,20,99,1026,20,2014-10-01T21:45:00,0,28177204,197598
OK,27,74,1026,27,2014-10-01T21:50:00,2,28177644,197598
OK,30,66,1026,30,2014-10-01T21:55:00,1,28178090,197598
OK,30,66,1026,30,2014-10-01T22:00:00,0,28178539,197598
OK,30,66,1026,30,2014-10-01T22:05:00,0,28178986,197598
OK,30,66,1026,30,2014-10-01T22:10:00,0,28179420,197598
OK,30,66,1026,30,2014-10-01T22:15:00,0,28179863,197598
OK,30,66,1026,30,2014-10-01T22:20:00,0,28180310,197598
OK,30,66,1026,30,2014-10-01T22:25:00,0,28180708,197598
OK,30,66,1026,30,2014-10-01T22:30:00,0,28181157,197598
OK,30,66,1026,30,2014-10-01T22:35:00,0,28181581,197598
OK,30,66,1026,30,2014-10-01T22:40:00,0,28182029,197598
OK,30,66,1026,30,2014-10-01T22:45:00,0,28182476,197598
OK,30,66,1026,30,2014-10-01T22:50:00,0,28182925,197598
OK,30,66,1026,30,2014-10-01T22:55:00,0,28183342,197598
OK,30,66,1026,30,2014-10-01T23:00:00,0,28183775,197598
OK,30,66,1026,30,2014-10-01T23:05:00,0,28184220,197598
OK,30,66,1026,30,2014-10-01T23:10:00,0,28184669,197598
OK,30,66,1026,30,2014-10-01T23:15:00,0,28185104,197598
OK,30,66,1026,30,2014-10-01T23:20:00,0,28185552,197598
OK,30,66,1026,30,2014-10-01T23:25:00,0,28185983,197598
OK,30,66,1026,30,2014-10-01T23:30:00,0,28186375,197598
OK,30,66,1026,30,2014-10-01T23:40:00,0,28187222,197598
OK,30,66,1026,30,2014-10-01T23:55:00,0,28188554,197598
OK,38,52,1026,38,2014-10-02T00:05:00,1,28189439,197598
OK,38,52,1026,38,2014-10-02T00:10:00,0,28189861,197598
OK,38,52,1026,38,2014-10-02T00:15:00,0,28190310,197598
OK,38,52,1026,38,2014-10-02T00:20:00,0,28190663,197598
OK,38,52,1026,38,2014-10-02T00:30:00,0,28191561,197598
OK,38,52,1026,38,2014-10-02T00:35:00,0,28191867,197598
OK,30,66,1026,30,2014-10-02T00:45:00,1,28192749,197598
OK,30,66,1026,30,2014-10-02T00:50:00,0,28193193,197598
OK,30,66,1026,30,2014-10-02T00:55:00,0,28193560,197598
OK,30,66,1026,30,2014-10-02T01:05:00,0,28194458,197598
OK,30,66,1026,30,2014-10-02T01:10:00,0,28194907,197598
OK,30,66,1026,30,2014-10-02T01:15:00,0,28195143,197598
OK,30,66,1026,30,2014-10-02T01:25:00,0,28196041,197598
OK,30,66,1026,30,2014-10-02T01:30:00,0,28196325,197598
OK,30,66,1026,30,2014-10-02T01:35:00,0,28196774,197598
OK,30,66,1026,30,2014-10-02T01:40:00,0,28197197,197598
OK,30,66,1026,30,2014-10-02T01:45:00,0,28197646,197598
OK,30,66,1026,30,2014-10-02T01:50:00,0,28198094,197598
OK,30,66,1026,30,2014-10-02T01:55:00,0,28198542,197598
OK,30,66,1026,30,2014-10-02T02:00:00,0,28198991,197598
OK,30,66,1026,30,2014-10-02T02:05:00,0,28199363,197598
OK,30,66,1026,30,2014-10-02T02:10:00,0,28199805,197598
OK,30,66,1026,30,2014-10-02T02:15:00,0,28200247,197598
OK,30,66,1026,30,2014-10-02T02:20:00,0,28200690,197598
OK,30,66,1026,30,2014-10-02T02:25:00,0,28201139,197598
OK,31,64,1026,31,2014-10-02T02:30:00,1,28201570,197598
OK,29,68,1026,29,2014-10-02T02:45:00,0,28202468,197598
OK,29,68,1026,29,2014-10-02T02:50:00,0,28202910,197598
OK,29,68,1026,29,2014-10-02T02:55:00,0,28203358,197598
OK,29,68,1026,29,2014-10-02T03:00:00,0,28203793,197598
OK,28,71,1026,28,2014-10-02T03:10:00,3,28204242,197598
OK,46,43,1026,46,2014-10-02T03:25:00,1,28204691,197598
OK,46,43,1026,46,2014-10-02T03:30:00,0,28205140,197598
OK,61,32,1026,61,2014-10-02T03:35:00,1,28205568,197598
OK,61,32,1026,61,2014-10-02T03:40:00,0,28206015,197598
OK,38,52,1026,38,2014-10-02T03:45:00,3,28206398,197598
OK,38,52,1026,38,2014-10-02T03:55:00,0,28207296,197598
OK,51,39,1026,51,2014-10-02T04:00:00,2,28207715,197598
OK,51,39,1026,51,2014-10-02T04:05:00,2,28208164,197598
OK,49,40,1026,49,2014-10-02T04:10:00,2,28208591,197598
OK,40,49,1026,40,2014-10-02T04:15:00,0,28209040,197598
OK,27,74,1026,27,2014-10-02T04:20:00,2,28209478,197598
OK,27,74,1026,27,2014-10-02T04:25:00,2,28209927,197598
OK,33,60,1026,33,2014-10-02T04:30:00,1,28210350,197598
OK,33,60,1026,33,2014-10-02T04:35:00,0,28210799,197598
OK,32,62,1026,32,2014-10-02T04:40:00,6,28211224,197598
OK,36,55,1026,36,2014-10-02T04:45:00,3,28211668,197598
OK,33,60,1026,33,2014-10-02T04:50:00,0,28212046,197598
OK,78,25,1026,78,2014-10-02T05:00:00,3,28212924,197598
OK,34,58,1026,34,2014-10-02T05:05:00,5,28213373,197598
OK,31,64,1026,31,2014-10-02T05:10:00,0,28213811,197598
OK,88,22,1026,88,2014-10-02T05:15:00,3,28214260,197598
OK,64,31,1026,64,2014-10-02T05:20:00,0,28214673,197598
OK,62,32,1026,62,2014-10-02T05:25:00,2,28215122,197598
OK,47,42,1026,47,2014-10-02T05:30:00,1,28215538,197598
OK,47,42,1026,47,2014-10-02T05:35:00,0,28215987,197598
OK,68,29,1026,68,2014-10-02T05:40:00,10,28216326,197598
OK,61,32,1026,61,2014-10-02T05:45:00,3,28216766,197598
OK,61,32,1026,61,2014-10-02T05:50:00,0,28217213,197598
OK,75,26,1026,75,2014-10-02T05:55:00,11,28217662,197598
OK,63,31,1026,63,2014-10-02T06:00:00,12,28218101,197598
OK,82,24,1026,82,2014-10-02T06:05:00,7,28218550,197598
OK,91,21,1026,91,2014-10-02T06:10:00,0,28218970,197598
OK,97,20,1026,97,2014-10-02T06:15:00,3,28219419,197598
OK,71,28,1026,71,2014-10-02T06:20:00,4,28219792,197598
OK,92,21,1026,92,2014-10-02T06:30:00,18,28220675,197598
OK,62,32,1026,62,2014-10-02T06:35:00,16,28221124,197598
OK,65,30,1026,65,2014-10-02T06:40:00,13,28221505,197598
OK,75,26,1026,75,2014-10-02T06:45:00,6,28221791,197598
OK,48,41,1026,48,2014-10-02T07:00:00,11,28222385,197598
OK,32,62,1026,32,2014-10-02T07:10:00,7,28223265,197598
OK,61,32,1026,61,2014-10-02T07:15:00,1,28223700,197598
OK,61,32,1026,61,2014-10-02T07:20:00,0,28224148,197598
OK,39,51,1026,39,2014-10-02T07:25:00,3,28224503,197598
OK,49,40,1026,49,2014-10-02T07:35:00,15,28225401,197598
OK,78,25,1026,78,2014-10-02T07:40:00,1,28225723,197598
OK,47,42,1026,47,2014-10-02T07:50:00,10,28226613,197598
OK,46,43,1026,46,2014-10-02T07:55:00,10,28227062,197598
OK,33,60,1026,33,2014-10-02T08:00:00,3,28227477,197598
OK,42,47,1026,42,2014-10-02T08:05:00,6,28227926,197598
OK,69,28,1026,69,2014-10-02T08:10:00,2,28228285,197598
OK,51,39,1026,51,2014-10-02T08:20:00,1,28229144,197598
OK,66,30,1026,66,2014-10-02T08:25:00,6,28229593,197598
OK,57,35,1026,57,2014-10-02T08:30:00,1,28229943,197598
OK,48,41,1026,48,2014-10-02T08:40:00,3,28230758,197598
OK,27,74,1026,27,2014-10-02T08:45:00,0,28231206,197598
OK,55,36,1026,55,2014-10-02T08:50:00,7,28231630,197598
OK,57,35,1026,57,2014-10-02T08:55:00,4,28232079,197598
OK,46,43,1026,46,2014-10-02T09:00:00,4,28232421,197598
OK,55,36,1026,55,2014-10-02T09:10:00,0,28232870,197598
OK,91,21,1026,91,2014-10-02T09:15:00,9,28233319,197598
OK,95,21,1026,95,2014-10-02T09:20:00,3,28233743,197598
OK,38,52,1026,38,2014-10-02T09:25:00,11,28234192,197598
OK,38,52,1026,38,2014-10-02T09:30:00,3,28234525,197598
OK,44,45,1026,44,2014-10-02T09:40:00,2,28235401,197598
OK,30,66,1026,30,2014-10-02T09:45:00,4,28235850,197598
OK,30,66,1026,30,2014-10-02T09:50:00,2,28236293,197598
OK,41,48,1026,41,2014-10-02T09:55:00,10,28236740,197598
OK,32,62,1026,32,2014-10-02T10:00:00,5,28237143,197598
OK,69,28,1026,69,2014-10-02T10:10:00,8,28238039,197598
OK,56,35,1026,56,2014-10-02T10:15:00,10,28238486,197598
OK,46,43,1026,46,2014-10-02T10:20:00,6,28238927,197598
OK,44,45,1026,44,2014-10-02T10:25:00,5,28239376,197598
OK,44,45,1026,44,2014-10-02T10:30:00,0,28239806,197598
OK,60,33,1026,60,2014-10-02T10:35:00,11,28240255,197598
OK,55,36,1026,55,2014-10-02T10:40:00,7,28240699,197598
OK,55,36,1026,55,2014-10-02T10:45:00,6,28241148,197598
OK,56,35,1026,56,2014-10-02T10:50:00,3,28241580,197598
OK,62,32,1026,62,2014-10-02T10:55:00,22,28242028,197598
OK,60,33,1026,60,2014-10-02T11:00:00,9,28242424,197598
OK,54,37,1026,54,2014-10-02T11:05:00,0,28242873,197598
OK,53,37,1026,53,2014-10-02T11:10:00,11,28243322,197598
OK,63,31,1026,63,2014-10-02T11:15:00,10,28243647,197598
OK,62,32,1026,62,2014-10-02T11:20:00,15,28244085,197598
OK,35,57,1026,35,2014-10-02T11:25:00,3,28244514,197598
OK,30,66,1026,30,2014-10-02T11:30:00,0,28244963,197598
OK,50,39,1026,50,2014-10-02T11:35:00,18,28245412,197598
OK,43,46,1026,43,2014-10-02T11:40:00,6,28245818,197598
OK,53,37,1026,53,2014-10-02T11:45:00,0,28246267,197598
OK,50,39,1026,50,2014-10-02T11:50:00,10,28246704,197598
OK,63,31,1026,63,2014-10-02T11:55:00,9,28247153,197598
OK,52,38,1026,52,2014-10-02T12:00:00,16,28247599,197598
OK,45,44,1026,45,2014-10-02T12:05:00,9,28248029,197598
OK,61,32,1026,61,2014-10-02T12:10:00,0,28248478,197598
OK,61,32,1026,61,2014-10-02T12:15:00,0,28248925,197598
OK,61,32,1026,61,2014-10-02T12:20:00,5,28249353,197598
OK,54,37,1026,54,2014-10-02T12:25:00,9,28249797,197598
OK,67,29,1026,67,2014-10-02T12:30:00,2,28250216,197598
OK,64,31,1026,64,2014-10-02T12:35:00,15,28250614,197598
OK,62,32,1026,62,2014-10-02T13:20:00,22,28251939,197598
OK,55,36,1026,55,2014-10-02T13:30:00,14,28252523,197598
OK,66,30,1026,66,2014-10-02T13:35:00,5,28252965,197598
OK,47,42,1026,47,2014-10-02T13:40:00,0,28253382,197598
OK,68,29,1026,68,2014-10-02T13:50:00,11,28254236,197598
OK,70,28,1026,70,2014-10-02T13:55:00,11,28254557,197598
OK,67,29,1026,67,2014-10-02T14:10:00,8,28255134,197598
OK,64,31,1026,64,2014-10-02T14:15:00,21,28255583,197598
OK,68,29,1026,68,2014-10-02T14:20:00,11,28256011,197598
OK,93,21,1026,93,2014-10-02T14:25:00,3,28256460,197598
OK,49,40,1026,49,2014-10-02T14:30:00,14,28256888,197598
OK,69,28,1026,69,2014-10-02T14:35:00,11,28257337,197598
OK,68,29,1026,68,2014-10-02T14:40:00,7,28257778,197598
OK,75,26,1026,75,2014-10-02T14:45:00,17,28258226,197598
OK,71,28,1026,71,2014-10-02T14:50:00,21,28258659,197598
OK,68,29,1026,68,2014-10-02T14:55:00,16,28259105,197598
OK,62,32,1026,62,2014-10-02T15:00:00,13,28259554,197598
OK,61,32,1026,61,2014-10-02T15:05:00,9,28260001,197598
OK,61,32,1026,61,2014-10-02T15:10:00,12,28260434,197598
OK,56,35,1026,56,2014-10-02T15:15:00,18,28260883,197598
OK,70,28,1026,70,2014-10-02T15:20:00,7,28261323,197598
OK,63,31,1026,63,2014-10-02T15:25:00,7,28261705,197598
OK,46,43,1026,46,2014-10-02T15:40:00,6,28263028,197598
OK,59,33,1026,59,2014-10-02T15:45:00,16,28263466,197598
OK,36,55,1026,36,2014-10-02T15:50:00,6,28263907,197598
OK,26,76,1026,26,2014-10-02T15:55:00,0,28264309,197598
OK,40,49,1026,40,2014-10-02T16:00:00,11,28264758,197598
OK,41,48,1026,41,2014-10-02T16:05:00,5,28265196,197598
OK,52,38,1026,52,2014-10-02T16:10:00,4,28265636,197598
OK,48,41,1026,48,2014-10-02T16:15:00,1,28266032,197598
OK,46,43,1026,46,2014-10-02T16:20:00,7,28266481,197598
OK,43,46,1026,43,2014-10-02T16:25:00,6,28266930,197598
OK,53,37,1026,53,2014-10-02T16:30:00,6,28267253,197598
OK,31,64,1026,31,2014-10-02T16:40:00,0,28268151,197598
OK,31,64,1026,31,2014-10-02T16:45:00,0,28268593,197598
OK,31,64,1026,31,2014-10-02T16:50:00,0,28269042,197598
OK,66,30,1026,66,2014-10-02T16:55:00,3,28269491,197598
OK,35,57,1026,35,2014-10-02T17:00:00,1,28269926,197598
OK,35,57,1026,35,2014-10-02T17:05:00,1,28270375,197598
OK,35,57,1026,35,2014-10-02T17:10:00,0,28270809,197598
OK,35,57,1026,35,2014-10-02T17:15:00,0,28271258,197598